| time (UTC) | temp F | wind direction | speed MPH | gust MPH | rain 1hr in | rain 24hr in | rain mn in | humidity % | barometer mb |
| 20260505173419 | 60 | 286 | 2.0 | 3.0 | 0.00 | 0.00 | 0.08 | 87 | 1008.0 |
| 20260505172912 | 60 | 281 | 0.0 | 3.0 | 0.00 | 0.00 | 0.08 | 87 | 1008.0 |
| 20260505172359 | 60 | 225 | 0.0 | 1.0 | 0.00 | 0.00 | 0.08 | 86 | 1008.0 |
| 20260505171339 | 61 | 220 | 2.0 | 3.0 | 0.00 | 0.00 | 0.08 | 85 | 1008.2 |
| 20260505170357 | 61 | 315 | 2.0 | 3.0 | 0.00 | 0.00 | 0.08 | 84 | 1007.6 |
| 20260505165813 | 62 | 226 | 0.0 | 2.0 | 0.00 | 0.00 | 0.08 | 84 | 1007.7 |
| 20260505165259 | 62 | 203 | 0.0 | 1.0 | 0.00 | 0.00 | 0.08 | 84 | 1007.8 |
| 20260505164239 | 62 | 219 | 0.0 | 2.0 | 0.00 | 0.00 | 0.08 | 84 | 1008.0 |
| 20260505163729 | 62 | 276 | 2.0 | 3.0 | 0.00 | 0.00 | 0.08 | 84 | 1007.8 |
| 20260505162712 | 62 | 210 | 0.0 | 3.0 | 0.00 | 0.00 | 0.08 | 84 | 1007.7 |
| 20260505161652 | 62 | 308 | 2.0 | 2.0 | 0.00 | 0.00 | 0.08 | 84 | 1008.0 |
| 20260505161139 | 62 | 240 | 1.0 | 3.0 | 0.00 | 0.00 | 0.08 | 84 | 1008.1 |
| 20260505160629 | 62 | 230 | 1.0 | 2.0 | 0.00 | 0.00 | 0.08 | 83 | 1008.2 |
| 20260505160158 | 63 | 218 | 1.0 | 2.0 | 0.00 | 0.00 | 0.08 | 82 | 1008.1 |
| 20260505153019 | 64 | 242 | 1.0 | 1.0 | 0.00 | 0.00 | 0.08 | 77 | 1008.1 |
| 20260505152547 | 65 | 227 | 0.0 | 1.0 | 0.00 | 0.00 | 0.08 | 78 | 1008.2 |
| 20260505152002 | 65 | 220 | 0.0 | 1.0 | 0.00 | 0.00 | 0.08 | 77 | 1008.1 |
| 20260505151449 | 66 | 247 | 1.0 | 2.0 | 0.00 | 0.00 | 0.08 | 76 | 1008.2 |
| 20260505150942 | 66 | 248 | 1.0 | 1.0 | 0.00 | 0.00 | 0.08 | 74 | 1008.1 |
| 20260505140229 | 68 | 248 | 1.0 | 2.0 | 0.00 | 0.00 | 0.08 | 74 | 1008.3 |
| 20260505125009 | 65 | 178 | 0.0 | 1.0 | 0.00 | 0.00 | 0.08 | 77 | 1009.0 |
| 20260505124027 | 65 | 170 | 0.0 | 1.0 | 0.00 | 0.00 | 0.08 | 78 | 1008.9 |
| 20260505123439 | 65 | 175 | 0.0 | 0.0 | 0.00 | 0.00 | 0.08 | 80 | 1008.8 |
| 20260505121909 | 66 | 172 | 0.0 | 1.0 | 0.00 | 0.00 | 0.08 | 78 | 1009.0 |
| 20260505121437 | 66 | 171 | 0.0 | 0.0 | 0.00 | 0.00 | 0.08 | 80 | 1009.0 |
| 20260505120852 | 66 | 171 | 0.0 | 0.0 | 0.00 | 0.00 | 0.08 | 81 | 1008.9 |
| 20260505120338 | 65 | 175 | 1.0 | 1.0 | 0.00 | 0.00 | 0.08 | 81 | 1009.3 |
| 20260505115319 | 64 | 174 | 0.0 | 0.0 | 0.00 | 0.00 | 0.08 | 82 | 1009.0 |
| 20260505114812 | 65 | 172 | 0.0 | 1.0 | 0.00 | 0.00 | 0.08 | 82 | 1008.9 |
| 20260505114259 | 65 | 179 | 0.0 | 0.0 | 0.00 | 0.00 | 0.08 | 80 | 1009.0 |
| 20260505112729 | 65 | 144 | 1.0 | 2.0 | 0.00 | 0.00 | 0.08 | 81 | 1009.2 |
| 20260505112219 | 64 | 169 | 0.0 | 0.0 | 0.00 | 0.00 | 0.08 | 84 | 1009.0 |
| 20260505111750 | 64 | 170 | 0.0 | 1.0 | 0.00 | 0.00 | 0.08 | 83 | 1009.1 |
| 20260505110139 | 64 | 165 | 0.0 | 1.0 | 0.00 | 0.00 | 0.08 | 84 | 1009.4 |
| 20260505102018 | 62 | 175 | 0.0 | 0.0 | 0.00 | 0.00 | 0.08 | 82 | 1009.1 |
| 20260505100958 | 62 | 176 | 1.0 | 1.0 | 0.00 | 0.00 | 0.08 | 81 | 1009.4 |
| 20260505093348 | 62 | 174 | 0.0 | 0.0 | 0.00 | 0.00 | 0.08 | 83 | 1009.4 |
| 20260505092838 | 62 | 190 | 1.0 | 2.0 | 0.00 | 0.00 | 0.08 | 82 | 1009.6 |
| 20260505092328 | 62 | 170 | 0.0 | 1.0 | 0.00 | 0.00 | 0.08 | 83 | 1009.6 |
| 20260505091857 | 62 | 170 | 1.0 | 2.0 | 0.00 | 0.00 | 0.08 | 82 | 1009.7 |
| 20260505091309 | 62 | 169 | 0.0 | 1.0 | 0.00 | 0.00 | 0.08 | 83 | 1009.5 |
| 20260505090758 | 62 | 176 | 1.0 | 2.0 | 0.00 | 0.00 | 0.08 | 83 | 1009.6 |
| 20260505085817 | 61 | 171 | 0.0 | 0.0 | 0.00 | 0.00 | 0.08 | 84 | 1009.9 |
| 20260505085228 | 61 | 176 | 0.0 | 1.0 | 0.00 | 0.00 | 0.08 | 85 | 1009.6 |
| 20260505084718 | 61 | 176 | 0.0 | 0.0 | 0.00 | 0.00 | 0.08 | 86 | 1009.6 |
| 20260505083825 | 60 | 173 | 0.0 | 1.0 | 0.00 | 0.00 | 0.08 | 86 | 1009.7 |
| 20260505082641 | 60 | 173 | 0.0 | 1.0 | 0.00 | 0.00 | 0.08 | 88 | 1009.6 |
| 20260505082128 | 60 | 172 | 0.0 | 1.0 | 0.00 | 0.00 | 0.08 | 88 | 1009.7 |
| 20260505081621 | 60 | 161 | 1.0 | 2.0 | 0.00 | 0.00 | 0.08 | 88 | 1009.8 |
| 20260505081108 | 60 | 170 | 0.0 | 1.0 | 0.00 | 0.00 | 0.08 | 89 | 1009.8 |
| 20260505080126 | 59 | 158 | 1.0 | 3.0 | 0.00 | 0.00 | 0.08 | 88 | 1009.7 |
| 20260505072438 | 58 | 175 | 0.0 | 1.0 | 0.00 | 0.00 | 0.08 | 92 | 1009.9 |
| 20260505071928 | 58 | 175 | 0.0 | 1.0 | 0.00 | 0.00 | 0.08 | 93 | 1009.7 |
| 20260505071421 | 58 | 177 | 0.0 | 2.0 | 0.00 | 0.00 | 0.08 | 93 | 1009.7 |
| 20260505070436 | 57 | 173 | 1.0 | 1.0 | 0.00 | 0.00 | 0.08 | 95 | 1009.7 |
| 20260505070010 | 57 | 159 | 1.0 | 7.0 | 0.00 | 0.00 | 0.08 | 96 | 1009.7 |
| 20260505065338 | 57 | 175 | 0.0 | 1.0 | 0.00 | 0.00 | 0.08 | 98 | 1009.4 |
| 20260505064828 | 57 | 178 | 0.0 | 1.0 | 0.00 | 0.00 | 0.08 | 98 | 1009.6 |
| 20260505064318 | 57 | 170 | 0.0 | 1.0 | 0.00 | 0.00 | 0.08 | 98 | 1009.5 |
| 20260505063808 | 56 | 175 | 0.0 | 1.0 | 0.00 | 0.00 | 0.08 | 98 | 1009.6 |
| 20260505063258 | 56 | 175 | 0.0 | 1.0 | 0.00 | 0.00 | 0.08 | 99 | 1009.9 |
| 20260505062748 | 56 | 176 | 0.0 | 1.0 | 0.00 | 0.00 | 0.08 | 99 | 1009.7 |
| 20260505062238 | 56 | 175 | 0.0 | 2.0 | 0.00 | 0.00 | 0.08 | 99 | 1009.9 |
| 20260505061221 | 56 | 171 | 0.0 | 0.0 | 0.00 | 0.00 | 0.08 | 99 | 1009.9 |
| 20260505060158 | 56 | 175 | 0.0 | 1.0 | 0.00 | 0.00 | 0.08 | 99 | 1009.9 |
| 20260505055726 | 56 | 178 | 0.0 | 0.0 | 0.00 | 0.00 | 0.08 | 99 | 1010.0 |
| 20260505055216 | 56 | 174 | 0.0 | 1.0 | 0.00 | 0.00 | 0.08 | 99 | 1010.0 |
| 20260505054118 | 55 | 174 | 0.0 | 0.0 | 0.01 | 0.00 | 0.08 | 99 | 1010.0 |
| 20260505053611 | 55 | 173 | 1.0 | 1.0 | 0.01 | 0.00 | 0.08 | 99 | 1010.1 |
| 20260505052550 | 55 | 174 | 1.0 | 2.0 | 0.01 | 0.00 | 0.08 | 99 | 1010.1 |
| 20260505051018 | 55 | 175 | 0.0 | 0.0 | 0.04 | 0.00 | 0.08 | 99 | 1010.0 |
| 20260505050508 | 55 | 176 | 0.0 | 1.0 | 0.06 | 0.00 | 0.08 | 99 | 1010.0 |
| 20260505035801 | 55 | 174 | 0.0 | 0.0 | 0.00 | 0.00 | 0.00 | 95 | 1010.5 |
| 20260505035247 | 55 | 178 | 1.0 | 1.0 | 0.00 | 0.00 | 0.00 | 95 | 1010.4 |
| 20260505034818 | 55 | 177 | 0.0 | 1.0 | 0.00 | 0.00 | 0.00 | 94 | 1010.2 |
| 20260505033207 | 55 | 176 | 0.0 | 1.0 | 0.00 | 0.00 | 0.00 | 93 | 1010.2 |
| 20260505032147 | 56 | 177 | 0.0 | 0.0 | 0.00 | 0.00 | 0.00 | 92 | 1010.5 |
| 20260505031637 | 56 | 179 | 0.0 | 1.0 | 0.00 | 0.00 | 0.00 | 91 | 1010.6 |
| 20260505031127 | 56 | 175 | 0.0 | 0.0 | 0.00 | 0.00 | 0.00 | 90 | 1010.5 |
| 20260505030620 | 56 | 170 | 0.0 | 1.0 | 0.00 | 0.00 | 0.00 | 89 | 1010.7 |
| 20260505030111 | 56 | 177 | 0.0 | 0.0 | 0.00 | 0.00 | 0.00 | 88 | 1010.8 |
| 20260505025600 | 56 | 174 | 0.0 | 1.0 | 0.00 | 0.00 | 0.00 | 88 | 1010.9 |
| 20260505025125 | 57 | 173 | 0.0 | 1.0 | 0.00 | 0.00 | 0.00 | 87 | 1010.6 |
| 20260505024537 | 57 | 170 | 0.0 | 0.0 | 0.00 | 0.00 | 0.00 | 86 | 1011.0 |
| 20260505024027 | 57 | 169 | 0.0 | 0.0 | 0.00 | 0.00 | 0.00 | 86 | 1010.9 |
| 20260505022936 | 57 | 175 | 0.0 | 0.0 | 0.00 | 0.00 | 0.00 | 86 | 1010.9 |
| 20260505022504 | 57 | 175 | 0.0 | 1.0 | 0.00 | 0.00 | 0.00 | 86 | 1011.0 |
| 20260505021919 | 57 | 182 | 0.0 | 0.0 | 0.00 | 0.00 | 0.00 | 86 | 1011.0 |
| 20260505021410 | 57 | 177 | 0.0 | 1.0 | 0.00 | 0.00 | 0.00 | 85 | 1011.2 |
| 20260505020859 | 57 | 179 | 0.0 | 0.0 | 0.00 | 0.00 | 0.00 | 85 | 1010.8 |
| 20260505020346 | 57 | 179 | 0.0 | 0.0 | 0.00 | 0.00 | 0.00 | 85 | 1010.9 |
| 20260505015836 | 57 | 192 | 0.0 | 1.0 | 0.00 | 0.00 | 0.00 | 85 | 1011.1 |
| 20260505015326 | 57 | 177 | 1.0 | 1.0 | 0.00 | 0.00 | 0.00 | 85 | 1011.2 |
| 20260505014748 | 57 | 191 | 0.0 | 1.0 | 0.00 | 0.00 | 0.00 | 85 | 1011.0 |
| 20260505014235 | 57 | 176 | 0.0 | 1.0 | 0.00 | 0.00 | 0.00 | 85 | 1011.2 |
| 20260505013215 | 57 | 154 | 0.0 | 1.0 | 0.00 | 0.00 | 0.00 | 85 | 1011.5 |
| 20260505012155 | 57 | 91 | 1.0 | 2.0 | 0.00 | 0.00 | 0.00 | 85 | 1011.2 |
| 20260505011648 | 57 | 188 | 0.0 | 0.0 | 0.00 | 0.00 | 0.00 | 85 | 1010.8 |
| 20260505011213 | 57 | 183 | 0.0 | 0.0 | 0.00 | 0.00 | 0.00 | 85 | 1010.8 |
| 20260505010625 | 57 | 187 | 0.0 | 2.0 | 0.00 | 0.00 | 0.00 | 85 | 1010.9 |
| 20260505005643 | 57 | 198 | 0.0 | 0.0 | 0.00 | 0.00 | 0.00 | 84 | 1010.9 |
| 20260505005055 | 57 | 193 | 0.0 | 0.0 | 0.00 | 0.00 | 0.00 | 84 | 1011.0 |
| 20260505003525 | 57 | 229 | 0.0 | 0.0 | 0.00 | 0.00 | 0.00 | 84 | 1011.2 |
| 20260505001955 | 57 | 226 | 0.0 | 0.0 | 0.00 | 0.00 | 0.00 | 84 | 1011.3 |
| 20260505001445 | 57 | 226 | 0.0 | 0.0 | 0.00 | 0.00 | 0.00 | 84 | 1011.5 |
| 20260504235443 | 57 | 212 | 0.0 | 0.0 | 0.00 | 0.00 | 0.00 | 84 | 1011.6 |
| 20260504234855 | 57 | 207 | 0.0 | 1.0 | 0.00 | 0.00 | 0.00 | 84 | 1011.5 |
| 20260504234507 | 57 | 208 | 0.0 | 0.0 | 0.00 | 0.00 | 0.00 | 84 | 1011.4 |
| 20260504233835 | 57 | 212 | 0.0 | 0.0 | 0.00 | 0.00 | 0.00 | 84 | 1011.5 |
| 20260504233325 | 57 | 213 | 0.0 | 0.0 | 0.00 | 0.00 | 0.00 | 84 | 1011.5 |
| 20260504232853 | 57 | 214 | 0.0 | 0.0 | 0.00 | 0.00 | 0.00 | 84 | 1011.4 |
| 20260504232343 | 57 | 213 | 0.0 | 0.0 | 0.00 | 0.00 | 0.00 | 85 | 1011.3 |
| 20260504231755 | 57 | 218 | 0.0 | 0.0 | 0.00 | 0.00 | 0.00 | 85 | 1011.5 |
| 20260504231248 | 56 | 215 | 0.0 | 0.0 | 0.00 | 0.00 | 0.00 | 86 | 1011.6 |
| 20260504230735 | 56 | 215 | 0.0 | 0.0 | 0.00 | 0.00 | 0.00 | 86 | 1011.8 |
| 20260504230225 | 56 | 215 | 0.0 | 0.0 | 0.00 | 0.00 | 0.00 | 86 | 1011.7 |
| 20260504225715 | 56 | 215 | 0.0 | 0.0 | 0.00 | 0.00 | 0.00 | 86 | 1011.8 |
| 20260504225205 | 56 | 215 | 0.0 | 0.0 | 0.00 | 0.00 | 0.00 | 86 | 1011.8 |
| 20260504224820 | 56 | 214 | 0.0 | 0.0 | 0.00 | 0.00 | 0.00 | 86 | 1011.8 |
| 20260504223716 | 56 | 214 | 0.0 | 0.0 | 0.00 | 0.00 | 0.00 | 86 | 1011.9 |
| 20260504222615 | 56 | 214 | 0.0 | 0.0 | 0.00 | 0.00 | 0.00 | 85 | 1012.1 |
| 20260504221123 | 57 | 213 | 0.0 | 0.0 | 0.00 | 0.00 | 0.00 | 84 | 1012.0 |
| 20260504220534 | 57 | 212 | 0.0 | 0.0 | 0.00 | 0.00 | 0.00 | 84 | 1011.9 |
| 20260504220024 | 57 | 220 | 0.0 | 1.0 | 0.00 | 0.00 | 0.00 | 84 | 1012.1 |
| 20260504215005 | 58 | 220 | 0.0 | 0.0 | 0.00 | 0.00 | 0.00 | 83 | 1012.1 |
| 20260504213945 | 58 | 218 | 0.0 | 0.0 | 0.00 | 0.00 | 0.00 | 82 | 1012.2 |
| 20260504213434 | 58 | 212 | 0.0 | 0.0 | 0.00 | 0.00 | 0.00 | 81 | 1012.1 |
| 20260504212924 | 59 | 210 | 0.0 | 0.0 | 0.00 | 0.00 | 0.00 | 80 | 1011.9 |
| 20260504212415 | 59 | 204 | 0.0 | 0.0 | 0.00 | 0.00 | 0.00 | 79 | 1012.1 |
| 20260504211355 | 60 | 218 | 0.0 | 0.0 | 0.00 | 0.00 | 0.00 | 78 | 1012.2 |
| 20260504210844 | 60 | 218 | 0.0 | 1.0 | 0.00 | 0.00 | 0.00 | 78 | 1012.3 |
| 20260504205824 | 60 | 215 | 0.0 | 0.0 | 0.00 | 0.00 | 0.00 | 77 | 1012.3 |
| 20260504205314 | 61 | 217 | 0.0 | 0.0 | 0.00 | 0.00 | 0.00 | 76 | 1012.3 |
| 20260504204843 | 61 | 218 | 0.0 | 0.0 | 0.00 | 0.00 | 0.00 | 76 | 1012.2 |
| 20260504204254 | 61 | 245 | 0.0 | 1.0 | 0.00 | 0.00 | 0.00 | 75 | 1012.1 |
| 20260504203744 | 61 | 218 | 0.0 | 0.0 | 0.00 | 0.00 | 0.00 | 75 | 1012.1 |
| 20260504202724 | 61 | 216 | 0.0 | 0.0 | 0.00 | 0.00 | 0.00 | 75 | 1012.3 |
| 20260504202214 | 61 | 207 | 0.0 | 0.0 | 0.00 | 0.00 | 0.00 | 74 | 1012.2 |
| 20260504201704 | 62 | 207 | 0.0 | 0.0 | 0.00 | 0.00 | 0.00 | 74 | 1012.4 |
| 20260504201232 | 62 | 217 | 0.0 | 0.0 | 0.00 | 0.00 | 0.00 | 74 | 1012.1 |
| 20260504200645 | 62 | 218 | 0.0 | 0.0 | 0.00 | 0.00 | 0.00 | 74 | 1012.1 |
| 20260504200135 | 62 | 215 | 0.0 | 0.0 | 0.00 | 0.00 | 0.00 | 74 | 1011.9 |
| 20260504194054 | 63 | 201 | 0.0 | 0.0 | 0.00 | 0.00 | 0.00 | 72 | 1012.1 |
| 20260504193544 | 63 | 201 | 0.0 | 0.0 | 0.00 | 0.00 | 0.00 | 71 | 1012.2 |
| 20260504192014 | 64 | 206 | 0.0 | 1.0 | 0.00 | 0.00 | 0.00 | 71 | 1012.2 |
| 20260504191504 | 64 | 202 | 0.0 | 0.0 | 0.00 | 0.00 | 0.00 | 71 | 1011.9 |
| 20260504185937 | 65 | 202 | 0.0 | 0.0 | 0.00 | 0.00 | 0.00 | 69 | 1011.8 |
| 20260504185424 | 66 | 202 | 0.0 | 0.0 | 0.00 | 0.00 | 0.00 | 68 | 1012.0 |
| 20260504184914 | 66 | 202 | 0.0 | 0.0 | 0.00 | 0.00 | 0.00 | 67 | 1011.9 |
| 20260504183344 | 66 | 202 | 0.0 | 0.0 | 0.00 | 0.00 | 0.00 | 68 | 1011.7 |
| 20260504182913 | 67 | 202 | 0.0 | 0.0 | 0.00 | 0.00 | 0.00 | 67 | 1011.8 |
| 20260504182450 | 67 | 202 | 0.0 | 0.0 | 0.00 | 0.00 | 0.00 | 67 | 1012.0 |
| 20260504181814 | 67 | 201 | 0.0 | 0.0 | 0.00 | 0.00 | 0.00 | 66 | 1011.8 |
| 20260504181304 | 67 | 201 | 0.0 | 0.0 | 0.00 | 0.00 | 0.00 | 65 | 1011.9 |
| 20260504180754 | 68 | 202 | 0.0 | 0.0 | 0.00 | 0.00 | 0.00 | 64 | 1011.8 |
| 20260504175812 | 68 | 214 | 0.0 | 1.0 | 0.00 | 0.00 | 0.00 | 62 | 1011.7 |
| 20260504175304 | 68 | 170 | 0.0 | 0.0 | 0.00 | 0.00 | 0.00 | 62 | 1011.7 |
| 20260504174714 | 68 | 215 | 0.0 | 1.0 | 0.00 | 0.00 | 0.00 | 61 | 1011.6 |
| 20260504174204 | 69 | 194 | 0.0 | 1.0 | 0.00 | 0.00 | 0.00 | 60 | 1011.6 |